Overview Statistics Trail Chart Weather Telemetry Raw packets
 

This is the latest recevied weather packets stored in our database for station/object WA6ODQ-13. If no packets are shown the sender has not sent any weather packets the latest 10 day(s).

<< 54 55 56 57 58 59 60 >>
Time Temp. Humidity Pressure Rain* Wind** Luminosity Snow
1788301730 24.44° C 48% 1013.1 hPa 0 mm - 541 W/m² -
1788301422 23.89° C 48% 1013.1 hPa 0 mm - 472 W/m² -
1788301116 24.44° C 48% 1013.1 hPa 0 mm - 528 W/m² -
1788300812 23.89° C 48% 1013.2 hPa 0 mm - 585 W/m² -
1788300512 23.89° C 47% 1013.2 hPa 0 mm - 584 W/m² -
1788300211 23.89° C 49% 1013.1 hPa 0 mm - 629 W/m² -
1788299910 24.44° C 47% 1013.2 hPa 0 mm - 589 W/m² -
1788299610 24.44° C 46% 1013.1 hPa 0 mm - 603 W/m² -
1788299308 24.44° C 48% 1013.2 hPa 0 mm - 305 W/m² -
1788299007 24.44° C 47% 1013.2 hPa 0 mm - 622 W/m² -
1788298701 24.44° C 46% 1013.3 hPa 0 mm - 617 W/m² -
1788298396 24.44° C 46% 1013.1 hPa 0 mm - 617 W/m² -
1788298096 24.44° C 46% 1013.1 hPa 0 mm - 629 W/m² -
1788297792 24.44° C 47% 1013.1 hPa 0 mm - 645 W/m² -
1788297487 24.44° C 47% 1013.2 hPa 0 mm - 343 W/m² -
1788297183 23.89° C 47% 1013.3 hPa 0 mm - 653 W/m² -
1788296879 23.89° C 48% 1013.4 hPa 0 mm - 726 W/m² -
1788296574 23.89° C 49% 1013.5 hPa 0 mm - 716 W/m² -
1788296270 23.33° C 49% 1013.5 hPa 0 mm - 708 W/m² -
1788295969 23.33° C 52% 1013.6 hPa 0 mm - 733 W/m² -
1788295665 23.33° C 52% 1013.4 hPa 0 mm - 779 W/m² -
1788295361 23.89° C 50% 1013.4 hPa 0 mm - 770 W/m² -
1788295051 23.89° C 51% 1013.1 hPa 0 mm - 749 W/m² -
1788294750 23.33° C 51% 1013.3 hPa 0 mm - 657 W/m² -
1788294444 23.33° C 51% 1013.5 hPa 0 mm - 365 W/m² -

* Rain latest hour (hover to see other rain measurements)
** Current wind speed in m/s (hover to see current wind gust speed)